Location: Fort Wayne
(41.1310°N, 85.1290°W)
Time: 05:45:43
(UTC-05:00)

Courier 1B Rocket - All Passes

Search period start: 23 November 2014 00:00
Search period end: 03 December 2014 00:00
Orbit: 920 x 1202 km, 28.2° (Epoch: 22 November)

Date Brightness Start Highest point End Pass type
(mag) Time Alt. Az. Time Alt. Az. Time Alt. Az.
23 Nov - 13:22:07 10° SSE 13:23:30 11° SSE 13:24:52 10° SE daylight
23 Nov - 15:10:54 10° SW 15:16:03 22° SSE 15:20:57 10° ESE daylight
23 Nov - 17:03:14 10° SW 17:08:41 26° S 17:13:52 10° SE daylight
23 Nov - 18:56:50 10° WSW 19:01:11 19° SSW 19:05:26 10° SSE visible
24 Nov - 14:10:31 10° SSW 14:15:17 19° SSE 14:19:52 10° ESE daylight
24 Nov - 16:02:19 10° SW 16:07:57 27° S 16:13:17 10° ESE daylight
24 Nov - 17:55:32 10° WSW 18:00:33 23° SSW 18:05:21 10° SE visible
24 Nov - 19:51:18 10° SW 19:52:52 11° SSW 19:54:25 10° S visible
25 Nov - 13:10:29 10° SSW 13:14:32 16° SSE 13:18:26 10° SE daylight
25 Nov - 15:01:30 10° SW 15:07:10 26° S 15:12:33 10° ESE daylight
25 Nov - 16:54:22 10° WSW 16:59:51 26° S 17:05:03 10° SE daylight
25 Nov - 18:48:42 10° SW 18:52:17 15° SSW 18:55:47 10° SSE visible
26 Nov - 12:11:16 10° S 12:13:46 12° SSE 12:16:13 10° SE daylight
26 Nov - 14:00:49 10° SW 14:06:23 23° SSE 14:11:40 10° ESE daylight
26 Nov - 15:53:17 10° WSW 15:59:06 28° S 16:04:36 10° SE daylight
26 Nov - 17:47:02 10° WSW 17:51:40 20° SSW 17:56:07 10° SSE visible
27 Nov - 13:00:21 10° SSW 13:05:34 20° SSE 13:10:34 10° ESE daylight
27 Nov - 14:52:18 10° SW 14:58:18 28° S 15:03:59 10° ESE daylight
27 Nov - 16:45:38 10° WSW 16:50:59 24° SSW 16:56:04 10° SE daylight
27 Nov - 18:41:23 10° SW 18:43:20 11° SSW 18:45:15 10° S visible
28 Nov - 12:00:14 10° SSW 12:04:45 17° SSE 12:09:08 10° ESE daylight
28 Nov - 13:51:25 10° SW 13:57:28 27° S 14:03:13 10° ESE daylight
28 Nov - 15:44:23 10° WSW 15:50:14 27° S 15:55:45 10° SE daylight
28 Nov - 17:38:48 10° WSW 17:42:44 16° SSW 17:46:31 10° SSE visible
29 Nov - 11:00:49 10° S 11:03:57 13° SSE 11:07:01 10° SE daylight
29 Nov - 12:50:41 10° SW 12:56:36 25° SSE 13:02:17 10° ESE daylight
29 Nov - 14:43:15 10° WSW 14:49:25 29° S 14:55:15 10° SE daylight
29 Nov - 16:37:03 10° WSW 16:42:03 21° SSW 16:46:50 10° SSE daylight
30 Nov - 11:50:12 10° SSW 11:55:44 22° SSE 12:01:08 10° ESE daylight
30 Nov - 13:42:13 10° SW 13:48:33 29° S 13:54:35 10° ESE daylight
30 Nov - 15:35:36 10° WSW 15:41:19 25° SSW 15:46:44 10° SE daylight
30 Nov - 17:31:16 10° SW 17:33:44 12° SSW 17:36:09 10° S daylight
01 Dec - 10:50:04 10° SSW 10:54:53 18° SSE 10:59:38 10° ESE daylight
01 Dec - 12:41:19 10° SW 12:47:39 28° S 12:53:45 10° ESE daylight
01 Dec - 14:34:19 10° WSW 14:40:30 28° S 14:46:22 10° SE daylight
01 Dec - 16:28:46 10° WSW 16:33:05 17° SSW 16:37:14 10° SSE daylight
02 Dec - 09:50:37 10° S 09:54:04 13° SSE 09:57:31 10° SE daylight
02 Dec - 11:40:36 10° SW 11:46:45 26° SSE 11:52:44 10° ESE daylight
02 Dec - 13:33:10 10° WSW 13:39:38 30° S 13:45:48 10° SE daylight
02 Dec - 15:27:00 10° WSW 15:32:21 22° SSW 15:37:28 10° SSE daylight
